This demonstration page uses our WeatherBlox Daily Observations layout. Learn more.

Left ArrowRight Arrow

Hourly Observations for June 19, 2015

Temp ( °F °C ) Dew Point ( °F °C ) Humidity (%) Winds ( mph kmh ) Pressure ( in mb ) Visibility ( mi km ) Precip ( " mm )
12:54 am 00:54 Clear 62 16.7 60 15.6 93 93 N N/A 30.06 1018 10 16.0934 N/A
1:54 am 01:54 Clear 63 17.2 60 15.6 90 90 N N/A 30.04 1017 10 16.0934 N/A
2:54 am 02:54 Clear 62 16.7 59 15 90 90 NNW 6 9 30.04 1017 10 16.0934 N/A
3:54 am 03:54 Clear 60 15.6 58 14.4 93 93 NNW 5 7 30.04 1017 10 16.0934 N/A
4:54 am 04:54 Clear 60 15.6 58 14.4 93 93 N 5 7 30.02 1017 10 16.0934 N/A
5:54 am 05:54 Clear 59 15 57 13.9 93 93 N 3 6 30.03 1017 10 16.0934 N/A
6:54 am 06:54 Sunny 63 17.2 59 15 87 87 WNW 3 6 30.04 1017 10 16.0934 N/A
7:54 am 07:54 Sunny 66 18.9 61 16.1 84 84 N N/A 30.04 1017 10 16.0934 N/A
8:54 am 08:54 Sunny 71 21.7 61 16.1 71 71 ESE 5 7 30.04 1017 10 16.0934 N/A
9:54 am 09:54 Sunny 75 23.9 59 15 58 58 ESE 12 19 30.04 1017 10 16.0934 N/A
10:54 am 10:54 Sunny 76 24.4 59 15 56 56 SSE 8 13 30.03 1017 10 16.0934 N/A
11:54 am 11:54 Sunny 78 25.6 61 16.1 56 56 SE 8 13 30.01 1016 10 16.0934 N/A
12:54 pm 12:54 Sunny 80 26.7 61 16.1 52 52 SSE 7 11 29.99 1016 10 16.0934 N/A
1:54 pm 13:54 Sunny 81 27.2 58 14.4 45 45 SSE 8 13 29.97 1015 10 16.0934 N/A
2:54 pm 14:54 Sunny 83 28.3 60 15.6 46 46 SSE 9 15 29.94 1014 10 16.0934 N/A
3:54 pm 15:54 Sunny 83 28.3 61 16.1 48 48 S 14 22 29.9 1013 10 16.0934 N/A
4:54 pm 16:54 Sunny 84 28.9 62 16.7 48 48 SSE 10 17 29.89 1012 10 16.0934 N/A
5:54 pm 17:54 Sunny 83 28.3 61 16.1 48 48 S 14 22 29.87 1012 10 16.0934 N/A
6:54 pm 18:54 Sunny 83 28.3 62 16.7 49 49 SSE 15 24 29.86 1011 10 16.0934 N/A
7:54 pm 19:54 Sunny 81 27.2 62 16.7 53 53 SSE 15 24 29.84 1011 10 16.0934 N/A
8:54 pm 20:54 Sunny 79 26.1 62 16.7 56 56 SE 12 19 29.83 1010 10 16.0934 N/A
9:54 pm 21:54 Clear 75 23.9 62 16.7 64 64 SSE 12 19 29.83 1010 10 16.0934 N/A
10:54 pm 22:54 Clear 76 24.4 62 16.7 62 62 SSE 12 19 29.83 1010 10 16.0934 N/A
11:54 pm 23:54 Clear 74 23.3 62 16.7 67 67 SSE 13 20 29.81 1009 10 16.0934 N/A

Powered by AerisWeather